Main page
METAR-TAF:

Airports :

Alpine, Texas, United States

Alpine-Casparis Municipal Airport

latitude: 30-23-03N, longitude: 103-41-00W, elevation: 1376 m

Current weather observation

The report was made 25 minutes ago, at 07:35 UTC
Wind 4 kt from the Southeast
Temperature 26°C
Humidity 48%
Pressure 1021 hPa
Visibility: 16.1 km
Clear sky

METAR: KE38 250735Z AUTO 13004KT 10SM CLR 26/14 A3016 RMK AO2 T02550143

Time: 03:00 (08:00 UTC)


TAF: missing

METAR-TAF

Weather observations and forecasts of more than 4000 airports (METAR and TAF reports).

The available stations are represented by yellow and red dots on the map.

Hover mouse over dot to see the name of the station.

Then click to see weather observations and forecasts.

To change the map : click on the green buttons with a black cross to zoom in, on the green button with a dash to zoom out, or on the green arrows for adjacent maps.


METAR-TAF: